Weather History for Window Rock, AZ

Change the Weather History Date:

Friday, October 26, 2012

  Actual Average Record
Temperature  
Mean Temperature 33 °F -  
Max Temperature 50 °F 62 °F 78 °F (1959)
Min Temperature 18 °F 29 °F 16 °F (1975)
Degree Days  
Heating Degree Days 32    
Moisture  
Dew Point 2 °F    
Average Humidity 30    
Maximum Humidity 60    
Minimum Humidity 12    
Precipitation  
Precipitation 0.00 in - - ()
Sea Level Pressure  
Sea Level Pressure 30.22 in    
Wind  
Wind Speed 6 mph (East)    
Max Wind Speed 12 mph    
Max Gust Speed -    
Visibility 10 miles    
Events      
Averages and records for this station are not official NWS values.
T = Trace of Precipitation, MM = Missing Value Source: NWS Daily Summary

Daily Weather History Graph

Daily Weather History Graph

Search for Another Location

Airport:

Trip Planner

Search our weather history database for the weather conditions in past years. The results will help you decide how hot, cold, wet, or windy it might be!

Date:

Astronomy

Oct. 26, 2012 Rise Set
Actual Time 7:33 AM MDT 6:26 PM MDT
Civil Twilight 7:06 AM MDT 6:52 PM MDT
Nautical Twilight 6:36 AM MDT 7:22 PM MDT
Astronomical Twilight 6:07 AM MDT 7:52 PM MDT
Moon 4:40 PM MDT (10/26) 4:37 AM MDT (10/26)
Length of Visible Light 11h 45m
Length of Day
10h 53m
Waxing Gibbous, 91% of the Moon is Illuminated
Oct 26
Waxing Gibbous
Oct 29
Full
Nov 6
Last Quarter
Nov 13
New
Nov 20
First Quarter

Hourly Weather History & Observations

Time (MDT) Temp. Windchill Dew Point Humidity Pressure Visibility Wind Dir Wind Speed Gust Speed Precip Events Conditions
12:53 AM 35.1 °F 27.4 °F 9.0 °F 34% 30.14 in 10.0 mi North 10.4 mph - N/A   Clear
1:53 AM 34.0 °F 25.5 °F 10.9 °F 38% 30.12 in 10.0 mi NNE 11.5 mph - N/A   Clear
2:53 AM 32.0 °F 25.6 °F 10.9 °F 42% 30.14 in 10.0 mi NE 6.9 mph - N/A   Clear
3:53 AM 30.0 °F 26.5 °F 10.0 °F 43% 30.15 in 10.0 mi NNE 3.5 mph - N/A   Clear
4:53 AM 23.0 °F - 8.1 °F 53% 30.20 in 10.0 mi Calm Calm - N/A   Clear
5:53 AM 18.0 °F - 6.1 °F 60% 30.25 in 10.0 mi Calm Calm - N/A   Clear
6:53 AM 19.9 °F - 7.0 °F 57% 30.28 in 10.0 mi Calm Calm - N/A   Clear
7:53 AM 21.0 °F 13.4 °F 8.1 °F 57% 30.29 in 10.0 mi East 5.8 mph - N/A   Clear
8:53 AM 25.0 °F 20.7 °F 9.0 °F 51% 30.30 in 10.0 mi South 3.5 mph - N/A   Clear
9:53 AM 36.0 °F - 10.9 °F 36% 30.29 in 10.0 mi Calm Calm - N/A   Clear
10:53 AM 41.0 °F 38.0 °F -0.9 °F 17% 30.27 in 10.0 mi Variable 4.6 mph - N/A   Clear
11:53 AM 42.1 °F 39.2 °F 1.0 °F 18% 30.28 in 10.0 mi Variable 4.6 mph - N/A   Clear
12:53 PM 44.1 °F 40.8 °F 3.0 °F 18% 30.23 in 10.0 mi Variable 5.8 mph - N/A   Clear
1:53 PM 46.0 °F 43.9 °F 1.0 °F 16% 30.20 in 10.0 mi Variable 4.6 mph - N/A   Clear
2:53 PM 46.9 °F - -0.0 °F 14% 30.17 in 10.0 mi SE 6.9 mph - N/A   Clear
3:53 PM 48.0 °F - -0.9 °F 13% 30.16 in 10.0 mi Variable 5.8 mph - N/A   Clear
4:53 PM 48.0 °F - -2.9 °F 12% 30.17 in 10.0 mi Variable 5.8 mph - N/A   Clear
5:53 PM 46.0 °F 43.1 °F -4.0 °F 12% 30.20 in 10.0 mi Variable 5.8 mph - N/A   Clear
6:53 PM 39.9 °F 35.1 °F -5.1 °F 15% 30.23 in 10.0 mi East 6.9 mph - N/A   Clear
7:53 PM 37.9 °F 32.7 °F -8.0 °F 14% 30.24 in 10.0 mi East 6.9 mph - N/A   Clear
8:53 PM 30.9 °F - -4.0 °F 22% 30.26 in 10.0 mi Calm Calm - N/A   Clear
9:53 PM 27.0 °F 23.0 °F -4.0 °F 26% 30.23 in 10.0 mi South 3.5 mph - N/A   Clear
10:53 PM 26.1 °F - -4.0 °F 27% 30.22 in 10.0 mi Calm Calm - N/A   Clear
11:53 PM 21.9 °F - -6.0 °F 29% 30.23 in 10.0 mi Calm Calm - N/A   Clear